Year,Month,Day,Hour,Minute,Value (Times are PST for windgust in km/hr)
2018,06,06,00,00,8.10
2018,06,06,00,01,6.40
2018,06,06,00,02,4.80
2018,06,06,00,03,3.20
2018,06,06,00,04,9.60
2018,06,06,00,05,11.30
2018,06,06,00,06,9.60
2018,06,06,00,07,9.60
2018,06,06,00,08,6.40
2018,06,06,00,09,6.40
2018,06,06,00,10,11.30
2018,06,06,00,11,9.60
2018,06,06,00,12,12.90
2018,06,06,00,13,12.90
2018,06,06,00,14,9.60
2018,06,06,00,15,9.60
2018,06,06,00,16,12.90
2018,06,06,00,17,9.60
2018,06,06,00,18,9.60
2018,06,06,00,19,12.90
2018,06,06,00,20,14.50
2018,06,06,00,21,9.60
2018,06,06,00,22,12.90
2018,06,06,00,23,9.60
2018,06,06,00,24,11.30
2018,06,06,00,25,9.60
2018,06,06,00,26,11.30
2018,06,06,00,27,4.80
2018,06,06,00,28,11.30
2018,06,06,00,29,6.40
2018,06,06,00,30,9.60
2018,06,06,00,31,6.40
2018,06,06,00,32,6.40
2018,06,06,00,33,6.40
2018,06,06,00,34,6.40
2018,06,06,00,35,6.40
2018,06,06,00,36,11.30
2018,06,06,00,37,11.30
2018,06,06,00,38,11.30
2018,06,06,00,39,9.60
2018,06,06,00,40,11.30
2018,06,06,00,41,9.60
2018,06,06,00,42,9.60
2018,06,06,00,43,6.40
2018,06,06,00,44,11.30
2018,06,06,00,45,11.30
2018,06,06,00,46,11.30
2018,06,06,00,47,8.10
2018,06,06,00,48,9.60
2018,06,06,00,49,8.10
2018,06,06,00,50,9.60
2018,06,06,00,51,12.90
2018,06,06,00,52,12.90
2018,06,06,00,53,9.60
2018,06,06,00,54,14.50
2018,06,06,00,55,14.50
2018,06,06,00,56,14.50
2018,06,06,00,57,12.90
2018,06,06,00,58,12.90
2018,06,06,00,59,11.30
2018,06,06,01,00,9.60
2018,06,06,01,01,11.30
2018,06,06,01,02,12.90
2018,06,06,01,03,16.10
2018,06,06,01,04,12.90
2018,06,06,01,05,11.30
2018,06,06,01,06,12.90
2018,06,06,01,07,16.10
2018,06,06,01,08,16.10
2018,06,06,01,09,11.30
2018,06,06,01,10,9.60
2018,06,06,01,11,11.30
2018,06,06,01,12,12.90
2018,06,06,01,13,9.60
2018,06,06,01,14,17.70
2018,06,06,01,15,16.10
2018,06,06,01,16,17.70
2018,06,06,01,17,17.70
2018,06,06,01,18,14.50
2018,06,06,01,19,14.50
2018,06,06,01,20,14.50
2018,06,06,01,21,12.90
2018,06,06,01,22,12.90
2018,06,06,01,23,9.60
2018,06,06,01,24,8.10
2018,06,06,01,25,19.30
2018,06,06,01,26,12.90
2018,06,06,01,27,12.90
2018,06,06,01,28,14.50
2018,06,06,01,29,11.30
2018,06,06,01,30,17.70
2018,06,06,01,31,17.70
2018,06,06,01,32,12.90
2018,06,06,01,33,12.90
2018,06,06,01,34,12.90
2018,06,06,01,35,12.90
2018,06,06,01,36,12.90
2018,06,06,01,37,16.10
2018,06,06,01,38,12.90
2018,06,06,01,39,11.30
2018,06,06,01,40,11.30
2018,06,06,01,41,12.90
2018,06,06,01,42,12.90
2018,06,06,01,43,12.90
2018,06,06,01,44,14.50
2018,06,06,01,45,12.90
2018,06,06,01,46,9.60
2018,06,06,01,47,16.10
2018,06,06,01,48,16.10
2018,06,06,01,49,11.30
2018,06,06,01,50,14.50
2018,06,06,01,51,17.70
2018,06,06,01,52,20.90
2018,06,06,01,53,19.30
2018,06,06,01,54,14.50
2018,06,06,01,55,20.90
2018,06,06,01,56,19.30
2018,06,06,01,57,22.50
2018,06,06,01,58,16.10
2018,06,06,01,59,14.50
2018,06,06,02,00,17.70
2018,06,06,02,01,14.50
2018,06,06,02,02,17.70
2018,06,06,02,03,22.50
2018,06,06,02,04,16.10
2018,06,06,02,05,16.10
2018,06,06,02,06,22.50
2018,06,06,02,07,19.30
2018,06,06,02,08,16.10
2018,06,06,02,09,20.90
2018,06,06,02,10,20.90
2018,06,06,02,11,16.10
2018,06,06,02,12,22.50
2018,06,06,02,13,16.10
2018,06,06,02,14,16.10
2018,06,06,02,15,22.50
2018,06,06,02,16,17.70
2018,06,06,02,17,20.90
2018,06,06,02,18,20.90
2018,06,06,02,19,24.20
2018,06,06,02,20,22.50
2018,06,06,02,21,17.70
2018,06,06,02,22,14.50
2018,06,06,02,23,22.50
2018,06,06,02,24,17.70
2018,06,06,02,25,16.10
2018,06,06,02,26,20.90
2018,06,06,02,27,22.50
2018,06,06,02,28,17.70
2018,06,06,02,29,16.10
2018,06,06,02,30,17.70
2018,06,06,02,31,14.50
2018,06,06,02,32,20.90
2018,06,06,02,33,17.70
2018,06,06,02,34,17.70
2018,06,06,02,35,12.90
2018,06,06,02,36,17.70
2018,06,06,02,37,16.10
2018,06,06,02,38,19.30
2018,06,06,02,39,16.10
2018,06,06,02,40,12.90
2018,06,06,02,41,16.10
2018,06,06,02,42,14.50
2018,06,06,02,43,11.30
2018,06,06,02,44,14.50
2018,06,06,02,45,14.50
2018,06,06,02,46,14.50
2018,06,06,02,47,17.70
2018,06,06,02,48,16.10
2018,06,06,02,49,14.50
2018,06,06,02,50,16.10
2018,06,06,02,51,8.10
2018,06,06,02,52,9.60
2018,06,06,02,53,6.40
2018,06,06,02,54,4.80
2018,06,06,02,55,11.30
2018,06,06,02,56,11.30
2018,06,06,02,57,11.30
2018,06,06,02,58,11.30
2018,06,06,02,59,14.50
2018,06,06,03,00,11.30
2018,06,06,03,01,11.30
2018,06,06,03,02,14.50
2018,06,06,03,03,14.50
2018,06,06,03,04,9.60
2018,06,06,03,05,11.30
2018,06,06,03,06,8.10
2018,06,06,03,07,8.10
2018,06,06,03,08,11.30
2018,06,06,03,09,11.30
2018,06,06,03,10,8.10
2018,06,06,03,11,4.80
2018,06,06,03,12,8.10
2018,06,06,03,13,8.10
2018,06,06,03,14,8.10
2018,06,06,03,15,6.40
2018,06,06,03,16,9.60
2018,06,06,03,17,9.60
2018,06,06,03,18,6.40
2018,06,06,03,19,11.30
2018,06,06,03,20,6.40
2018,06,06,03,21,11.30
2018,06,06,03,22,11.30
2018,06,06,03,23,4.80
2018,06,06,03,24,16.10
2018,06,06,03,25,16.10
2018,06,06,03,26,16.10
2018,06,06,03,27,14.50
2018,06,06,03,28,11.30
2018,06,06,03,29,12.90
2018,06,06,03,30,14.50
2018,06,06,03,31,11.30
2018,06,06,03,32,12.90
2018,06,06,03,33,16.10
2018,06,06,03,34,12.90
2018,06,06,03,35,11.30
2018,06,06,03,36,9.60
2018,06,06,03,37,9.60
2018,06,06,03,38,12.90
2018,06,06,03,39,14.50
2018,06,06,03,40,9.60
2018,06,06,03,41,12.90
2018,06,06,03,42,14.50
2018,06,06,03,43,17.70
2018,06,06,03,44,12.90
2018,06,06,03,45,17.70
2018,06,06,03,46,14.50
2018,06,06,03,47,14.50
2018,06,06,03,48,14.50
2018,06,06,03,49,19.30
2018,06,06,03,50,17.70
2018,06,06,03,51,19.30
2018,06,06,03,52,19.30
2018,06,06,03,53,19.30
2018,06,06,03,54,17.70
2018,06,06,03,55,17.70
2018,06,06,03,56,20.90
2018,06,06,03,57,12.90
2018,06,06,03,58,11.30
2018,06,06,03,59,14.50
2018,06,06,04,00,16.10
2018,06,06,04,01,11.30
2018,06,06,04,02,11.30
2018,06,06,04,03,11.30
2018,06,06,04,04,8.10
2018,06,06,04,05,4.80
2018,06,06,04,06,8.10
2018,06,06,04,07,9.60
2018,06,06,04,08,11.30
2018,06,06,04,09,12.90
2018,06,06,04,10,6.40
2018,06,06,04,11,4.80
2018,06,06,04,12,9.60
2018,06,06,04,13,11.30
2018,06,06,04,14,12.90
2018,06,06,04,15,9.60
2018,06,06,04,16,11.30
2018,06,06,04,17,14.50
2018,06,06,04,18,8.10
2018,06,06,04,19,9.60
2018,06,06,04,20,9.60
2018,06,06,04,21,8.10
2018,06,06,04,22,12.90
2018,06,06,04,23,6.40
2018,06,06,04,24,4.80
2018,06,06,04,25,6.40
2018,06,06,04,26,6.40
2018,06,06,04,27,3.20
2018,06,06,04,28,8.10
2018,06,06,04,29,8.10
2018,06,06,04,30,6.40
2018,06,06,04,31,6.40
2018,06,06,04,32,6.40
2018,06,06,04,33,9.60
2018,06,06,04,34,6.40
2018,06,06,04,35,6.40
2018,06,06,04,36,6.40
2018,06,06,04,37,6.40
2018,06,06,04,38,6.40
2018,06,06,04,39,6.40
2018,06,06,04,40,8.10
2018,06,06,04,41,6.40
2018,06,06,04,43,6.40
2018,06,06,04,44,8.10
2018,06,06,04,45,4.80
2018,06,06,04,46,8.10
2018,06,06,04,47,6.40
2018,06,06,04,48,4.80
2018,06,06,04,49,3.20
2018,06,06,04,51,8.10
2018,06,06,04,52,6.40
2018,06,06,04,53,4.80
2018,06,06,04,54,6.40
2018,06,06,04,55,9.60
2018,06,06,04,56,8.10
2018,06,06,04,57,11.30
2018,06,06,04,58,9.60
2018,06,06,04,59,8.10
2018,06,06,05,00,9.60
2018,06,06,05,01,8.10
2018,06,06,05,02,8.10
2018,06,06,05,03,9.60
2018,06,06,05,04,8.10
2018,06,06,05,05,8.10
2018,06,06,05,06,6.40
2018,06,06,05,07,6.40
2018,06,06,05,08,6.40
2018,06,06,05,09,4.80
2018,06,06,05,10,4.80
2018,06,06,05,11,4.80
2018,06,06,05,12,1.60
2018,06,06,05,18,3.20
2018,06,06,05,19,3.20
2018,06,06,05,20,3.20
2018,06,06,05,27,1.60
2018,06,06,05,28,4.80
2018,06,06,05,29,6.40
2018,06,06,05,30,6.40
2018,06,06,05,31,4.80
2018,06,06,05,32,4.80
2018,06,06,05,33,4.80
2018,06,06,05,34,6.40
2018,06,06,05,35,8.10
2018,06,06,05,36,6.40
2018,06,06,05,37,4.80
2018,06,06,05,38,3.20
2018,06,06,05,39,3.20
2018,06,06,05,40,3.20
2018,06,06,05,41,6.40
2018,06,06,05,42,4.80
2018,06,06,05,43,1.60
2018,06,06,05,50,1.60
2018,06,06,05,51,4.80
2018,06,06,05,52,4.80
2018,06,06,05,53,4.80
2018,06,06,05,54,3.20
2018,06,06,05,55,3.20
2018,06,06,05,56,3.20
2018,06,06,05,57,1.60
2018,06,06,05,58,3.20
2018,06,06,05,59,4.80
2018,06,06,06,00,4.80
2018,06,06,06,01,4.80
2018,06,06,06,02,4.80
2018,06,06,06,03,4.80
2018,06,06,06,04,4.80
2018,06,06,06,05,4.80
2018,06,06,06,06,4.80
2018,06,06,06,07,4.80
2018,06,06,06,08,3.20
2018,06,06,06,09,4.80
2018,06,06,06,10,4.80
2018,06,06,06,11,4.80
2018,06,06,06,12,4.80
2018,06,06,06,13,1.60
2018,06,06,06,15,3.20
2018,06,06,06,16,4.80
2018,06,06,06,17,4.80
2018,06,06,06,18,4.80
2018,06,06,06,19,6.40
2018,06,06,06,20,6.40
2018,06,06,06,21,6.40
2018,06,06,06,22,8.10
2018,06,06,06,23,8.10
2018,06,06,06,24,9.60
2018,06,06,06,25,8.10
2018,06,06,06,26,8.10
2018,06,06,06,27,8.10
2018,06,06,06,28,8.10
2018,06,06,06,29,6.40
2018,06,06,06,30,4.80
2018,06,06,06,31,3.20
2018,06,06,06,32,4.80
2018,06,06,06,33,1.60
2018,06,06,06,38,1.60
2018,06,06,06,39,3.20
2018,06,06,06,40,3.20
2018,06,06,07,06,3.20
2018,06,06,07,07,3.20
2018,06,06,07,08,3.20
2018,06,06,07,09,3.20
2018,06,06,07,10,1.60
2018,06,06,07,24,4.80
2018,06,06,07,25,4.80
2018,06,06,07,26,4.80
2018,06,06,07,27,4.80
2018,06,06,07,28,4.80
2018,06,06,07,29,3.20
2018,06,06,07,30,1.60
2018,06,06,07,36,6.40
2018,06,06,07,37,6.40
2018,06,06,07,40,4.80
2018,06,06,07,41,4.80
2018,06,06,07,42,4.80
2018,06,06,07,43,4.80
2018,06,06,07,44,1.60
2018,06,06,07,45,1.60
2018,06,06,07,46,9.60
2018,06,06,07,47,6.40
2018,06,06,07,48,6.40
2018,06,06,07,49,6.40
2018,06,06,07,50,11.30
2018,06,06,07,51,9.60
2018,06,06,07,52,6.40
2018,06,06,07,53,4.80
2018,06,06,07,54,6.40
2018,06,06,07,55,6.40
2018,06,06,07,56,6.40
2018,06,06,07,57,6.40
2018,06,06,07,58,9.60
2018,06,06,07,59,6.40
2018,06,06,08,00,9.60
2018,06,06,08,01,9.60
2018,06,06,08,02,11.30
2018,06,06,08,03,6.40
2018,06,06,08,04,9.60
2018,06,06,08,05,9.60
2018,06,06,08,06,6.40
2018,06,06,08,07,9.60
2018,06,06,08,08,12.90
2018,06,06,08,09,12.90
2018,06,06,08,10,6.40
2018,06,06,08,11,9.60
2018,06,06,08,12,6.40
2018,06,06,08,13,9.60
2018,06,06,08,14,12.90
2018,06,06,08,15,14.50
2018,06,06,08,16,11.30
2018,06,06,08,17,11.30
2018,06,06,08,18,11.30
2018,06,06,08,19,6.40
2018,06,06,08,20,11.30
2018,06,06,08,21,11.30
2018,06,06,08,22,12.90
2018,06,06,08,23,14.50
2018,06,06,08,24,20.90
2018,06,06,08,25,16.10
2018,06,06,08,26,12.90
2018,06,06,08,27,11.30
2018,06,06,08,28,16.10
2018,06,06,08,29,20.90
2018,06,06,08,30,19.30
2018,06,06,08,31,12.90
2018,06,06,08,32,11.30
2018,06,06,08,33,17.70
2018,06,06,08,34,16.10
2018,06,06,08,35,14.50
2018,06,06,08,36,14.50
2018,06,06,08,37,17.70
2018,06,06,08,38,17.70
2018,06,06,08,39,14.50
2018,06,06,08,40,16.10
2018,06,06,08,41,14.50
2018,06,06,08,42,12.90
2018,06,06,08,43,16.10
2018,06,06,08,44,16.10
2018,06,06,08,45,12.90
2018,06,06,08,46,16.10
2018,06,06,08,47,14.50
2018,06,06,08,48,17.70
2018,06,06,08,49,19.30
2018,06,06,08,50,17.70
2018,06,06,08,51,17.70
2018,06,06,08,52,16.10
2018,06,06,08,53,12.90
2018,06,06,08,54,16.10
2018,06,06,08,55,19.30
2018,06,06,08,56,14.50
2018,06,06,08,57,19.30
2018,06,06,08,58,16.10
2018,06,06,08,59,22.50
2018,06,06,09,00,22.50
2018,06,06,09,01,16.10
2018,06,06,09,02,12.90
2018,06,06,09,03,25.70
2018,06,06,09,04,19.30
2018,06,06,09,05,19.30
2018,06,06,09,06,19.30
2018,06,06,09,07,24.20
2018,06,06,09,08,27.40
2018,06,06,09,09,17.70
2018,06,06,09,10,27.40
2018,06,06,09,11,22.50
2018,06,06,09,12,17.70
2018,06,06,09,13,19.30
2018,06,06,09,14,27.40
2018,06,06,09,15,19.30
2018,06,06,09,16,27.40
2018,06,06,09,17,22.50
2018,06,06,09,18,20.90
2018,06,06,09,19,27.40
2018,06,06,09,20,22.50
2018,06,06,09,21,16.10
2018,06,06,09,22,30.60
2018,06,06,09,23,29.00
2018,06,06,09,24,29.00
2018,06,06,09,25,30.60
2018,06,06,09,26,25.70
2018,06,06,09,27,30.60
2018,06,06,09,28,30.60
2018,06,06,09,29,24.20
2018,06,06,09,30,30.60
2018,06,06,09,31,30.60
2018,06,06,09,32,27.40
2018,06,06,09,33,30.60
2018,06,06,09,34,22.50
2018,06,06,09,35,22.50
2018,06,06,09,36,24.20
2018,06,06,09,37,25.70
2018,06,06,09,38,27.40
2018,06,06,09,39,24.20
2018,06,06,09,40,19.30
2018,06,06,09,41,30.60
2018,06,06,09,42,25.70
2018,06,06,09,43,27.40
2018,06,06,09,44,32.20
2018,06,06,09,45,27.40
2018,06,06,09,46,22.50
2018,06,06,09,47,19.30
2018,06,06,09,48,24.20
2018,06,06,09,49,24.20
2018,06,06,09,50,25.70
2018,06,06,09,51,22.50
2018,06,06,09,52,25.70
2018,06,06,09,53,27.40
2018,06,06,09,54,22.50
2018,06,06,09,55,27.40
2018,06,06,09,56,27.40
2018,06,06,09,57,30.60
2018,06,06,09,58,24.20
2018,06,06,09,59,25.70
2018,06,06,10,00,25.70
2018,06,06,10,01,27.40
2018,06,06,10,02,20.90
2018,06,06,10,03,24.20
2018,06,06,10,04,35.40
2018,06,06,10,05,27.40
2018,06,06,10,06,19.30
2018,06,06,10,07,22.50
2018,06,06,10,08,35.40
2018,06,06,10,09,25.70
2018,06,06,10,10,25.70
2018,06,06,10,11,27.40
2018,06,06,10,12,24.20
2018,06,06,10,13,29.00
2018,06,06,10,14,24.20
2018,06,06,10,15,27.40
2018,06,06,10,16,30.60
2018,06,06,10,17,25.70
2018,06,06,10,18,29.00
2018,06,06,10,19,22.50
2018,06,06,10,20,25.70
2018,06,06,10,21,25.70
2018,06,06,10,22,29.00
2018,06,06,10,23,27.40
2018,06,06,10,24,27.40
2018,06,06,10,25,25.70
2018,06,06,10,26,27.40
2018,06,06,10,27,20.90
2018,06,06,10,28,30.60
2018,06,06,10,29,27.40
2018,06,06,10,30,27.40
2018,06,06,10,31,27.40
2018,06,06,10,32,29.00
2018,06,06,10,33,27.40
2018,06,06,10,34,37.00
2018,06,06,10,35,30.60
2018,06,06,10,36,32.20
2018,06,06,10,37,33.80
2018,06,06,10,38,32.20
2018,06,06,10,39,29.00
2018,06,06,10,40,33.80
2018,06,06,10,41,30.60
2018,06,06,10,42,27.40
2018,06,06,10,43,24.20
2018,06,06,10,44,33.80
2018,06,06,10,45,27.40
2018,06,06,10,46,32.20
2018,06,06,10,47,27.40
2018,06,06,10,48,27.40
2018,06,06,10,49,29.00
2018,06,06,10,50,29.00
2018,06,06,10,51,29.00
2018,06,06,10,52,29.00
2018,06,06,10,53,25.70
2018,06,06,10,54,29.00
2018,06,06,10,55,24.20
2018,06,06,10,56,30.60
2018,06,06,10,57,27.40
2018,06,06,10,58,25.70
2018,06,06,10,59,25.70
2018,06,06,11,00,29.00
2018,06,06,11,01,29.00
2018,06,06,11,02,30.60
2018,06,06,11,03,32.20
2018,06,06,11,04,32.20
2018,06,06,11,05,32.20
2018,06,06,11,06,27.40
2018,06,06,11,07,30.60
2018,06,06,11,08,32.20
2018,06,06,11,09,24.20
2018,06,06,11,10,35.40
2018,06,06,11,11,27.40
2018,06,06,11,12,38.60
2018,06,06,11,13,30.60
2018,06,06,11,14,33.80
2018,06,06,11,15,30.60
2018,06,06,11,16,33.80
2018,06,06,11,17,29.00
2018,06,06,11,18,27.40
2018,06,06,11,19,29.00
2018,06,06,11,20,29.00
2018,06,06,11,21,37.00
2018,06,06,11,22,35.40
2018,06,06,11,23,29.00
2018,06,06,11,24,32.20
2018,06,06,11,25,33.80
2018,06,06,11,26,24.20
2018,06,06,11,27,30.60
2018,06,06,11,28,32.20
2018,06,06,11,29,29.00
2018,06,06,11,30,33.80
2018,06,06,11,31,30.60
2018,06,06,11,32,30.60
2018,06,06,11,33,29.00
2018,06,06,11,34,30.60
2018,06,06,11,35,33.80
2018,06,06,11,36,30.60
2018,06,06,11,37,37.00
2018,06,06,11,38,25.70
2018,06,06,11,39,30.60
2018,06,06,11,40,32.20
2018,06,06,11,41,37.00
2018,06,06,11,42,27.40
2018,06,06,11,43,27.40
2018,06,06,11,44,29.00
2018,06,06,11,45,32.20
2018,06,06,11,46,32.20
2018,06,06,11,47,29.00
2018,06,06,11,48,30.60
2018,06,06,11,49,38.60
2018,06,06,11,50,38.60
2018,06,06,11,51,30.60
2018,06,06,11,52,25.70
2018,06,06,11,53,29.00
2018,06,06,11,54,27.40
2018,06,06,11,55,30.60
2018,06,06,11,56,38.60
2018,06,06,11,57,27.40
2018,06,06,11,58,27.40
2018,06,06,11,59,27.40
2018,06,06,12,00,27.40
2018,06,06,12,01,25.70
2018,06,06,12,02,20.90
2018,06,06,12,03,24.20
2018,06,06,12,04,22.50
2018,06,06,12,05,29.00
2018,06,06,12,06,22.50
2018,06,06,12,07,27.40
2018,06,06,12,08,24.20
2018,06,06,12,09,25.70
2018,06,06,12,10,20.90
2018,06,06,12,11,24.20
2018,06,06,12,12,25.70
2018,06,06,12,13,24.20
2018,06,06,12,14,24.20
2018,06,06,12,15,24.20
2018,06,06,12,16,19.30
2018,06,06,12,17,20.90
2018,06,06,12,18,30.60
2018,06,06,12,19,27.40
2018,06,06,12,20,30.60
2018,06,06,12,21,33.80
2018,06,06,12,22,29.00
2018,06,06,12,23,27.40
2018,06,06,12,24,24.20
2018,06,06,12,25,27.40
2018,06,06,12,26,22.50
2018,06,06,12,27,25.70
2018,06,06,12,28,17.70
2018,06,06,12,29,29.00
2018,06,06,12,30,25.70
2018,06,06,12,31,24.20
2018,06,06,12,32,29.00
2018,06,06,12,33,24.20
2018,06,06,12,34,22.50
2018,06,06,12,35,20.90
2018,06,06,12,36,33.80
2018,06,06,12,37,29.00
2018,06,06,12,38,27.40
2018,06,06,12,39,29.00
2018,06,06,12,40,32.20
2018,06,06,12,41,24.20
2018,06,06,12,42,24.20
2018,06,06,12,43,24.20
2018,06,06,12,44,19.30
2018,06,06,12,45,27.40
2018,06,06,12,46,27.40
2018,06,06,12,47,27.40
2018,06,06,12,48,25.70
2018,06,06,12,49,27.40
2018,06,06,12,50,22.50
2018,06,06,12,51,30.60
2018,06,06,12,52,25.70
2018,06,06,12,53,22.50
2018,06,06,12,54,29.00
2018,06,06,12,55,27.40
2018,06,06,12,56,27.40
2018,06,06,12,57,25.70
2018,06,06,12,58,25.70
2018,06,06,12,59,29.00
2018,06,06,13,00,24.20
2018,06,06,13,01,27.40
2018,06,06,13,02,32.20
2018,06,06,13,03,22.50
2018,06,06,13,04,25.70
2018,06,06,13,05,22.50
2018,06,06,13,06,25.70
2018,06,06,13,07,22.50
2018,06,06,13,08,27.40
2018,06,06,13,09,30.60
2018,06,06,13,10,38.60
2018,06,06,13,11,32.20
2018,06,06,13,12,30.60
2018,06,06,13,13,30.60
2018,06,06,13,14,27.40
2018,06,06,13,15,29.00
2018,06,06,13,16,25.70
2018,06,06,13,17,27.40
2018,06,06,13,18,22.50
2018,06,06,13,19,24.20
2018,06,06,13,20,29.00
2018,06,06,13,21,27.40
2018,06,06,13,22,27.40
2018,06,06,13,23,29.00
2018,06,06,13,24,22.50
2018,06,06,13,25,22.50
2018,06,06,13,26,25.70
2018,06,06,13,27,20.90
2018,06,06,13,28,22.50
2018,06,06,13,29,27.40
2018,06,06,13,30,30.60
2018,06,06,13,31,22.50
2018,06,06,13,32,22.50
2018,06,06,13,33,22.50
2018,06,06,13,34,24.20
2018,06,06,13,35,27.40
2018,06,06,13,36,25.70
2018,06,06,13,37,20.90
2018,06,06,13,38,25.70
2018,06,06,13,39,25.70
2018,06,06,13,40,25.70
2018,06,06,13,41,25.70
2018,06,06,13,42,22.50
2018,06,06,13,43,19.30
2018,06,06,13,44,22.50
2018,06,06,13,45,25.70
2018,06,06,13,46,29.00
2018,06,06,13,47,27.40
2018,06,06,13,48,20.90
2018,06,06,13,49,22.50
2018,06,06,13,50,22.50
2018,06,06,13,51,22.50
2018,06,06,13,52,30.60
2018,06,06,13,53,25.70
2018,06,06,13,54,22.50
2018,06,06,13,55,22.50
2018,06,06,13,56,22.50
2018,06,06,13,57,25.70
2018,06,06,13,58,22.50
2018,06,06,13,59,25.70
2018,06,06,14,00,25.70
2018,06,06,14,01,24.20
2018,06,06,14,02,24.20
2018,06,06,14,03,25.70
2018,06,06,14,04,24.20
2018,06,06,14,05,24.20
2018,06,06,14,06,29.00
2018,06,06,14,07,24.20
2018,06,06,14,08,27.40
2018,06,06,14,09,27.40
2018,06,06,14,10,24.20
2018,06,06,14,11,22.50
2018,06,06,14,12,20.90
2018,06,06,14,13,20.90
2018,06,06,14,14,20.90
2018,06,06,14,15,25.70
2018,06,06,14,16,24.20
2018,06,06,14,17,29.00
2018,06,06,14,18,29.00
2018,06,06,14,19,22.50
2018,06,06,14,20,20.90
2018,06,06,14,21,20.90
2018,06,06,14,22,17.70
2018,06,06,14,23,25.70
2018,06,06,14,24,25.70
2018,06,06,14,25,27.40
2018,06,06,14,26,25.70
2018,06,06,14,27,24.20
2018,06,06,14,28,22.50
2018,06,06,14,29,20.90
2018,06,06,14,30,27.40
2018,06,06,14,31,25.70
2018,06,06,14,32,22.50
2018,06,06,14,33,27.40
2018,06,06,14,34,25.70
2018,06,06,14,35,17.70
2018,06,06,14,36,22.50
2018,06,06,14,37,24.20
2018,06,06,14,38,24.20
2018,06,06,14,39,25.70
2018,06,06,14,40,25.70
2018,06,06,14,41,24.20
2018,06,06,14,42,24.20
2018,06,06,14,43,27.40
2018,06,06,14,44,25.70
2018,06,06,14,45,27.40
2018,06,06,14,46,30.60
2018,06,06,14,47,20.90
2018,06,06,14,48,19.30
2018,06,06,14,49,24.20
2018,06,06,14,50,24.20
2018,06,06,14,51,17.70
2018,06,06,14,52,20.90
2018,06,06,14,53,33.80
2018,06,06,14,54,33.80
2018,06,06,14,55,22.50
2018,06,06,14,56,29.00
2018,06,06,14,57,24.20
2018,06,06,14,58,24.20
2018,06,06,14,59,25.70
2018,06,06,15,00,27.40
2018,06,06,15,01,27.40
2018,06,06,15,02,25.70
2018,06,06,15,03,33.80
2018,06,06,15,04,29.00
2018,06,06,15,05,29.00
2018,06,06,15,06,27.40
2018,06,06,15,07,25.70
2018,06,06,15,08,25.70
2018,06,06,15,09,20.90
2018,06,06,15,10,29.00
2018,06,06,15,11,22.50
2018,06,06,15,12,24.20
2018,06,06,15,13,24.20
2018,06,06,15,14,24.20
2018,06,06,15,15,24.20
2018,06,06,15,16,24.20
2018,06,06,15,17,17.70
2018,06,06,15,18,19.30
2018,06,06,15,19,17.70
2018,06,06,15,20,19.30
2018,06,06,15,21,20.90
2018,06,06,15,22,27.40
2018,06,06,15,23,24.20
2018,06,06,15,24,25.70
2018,06,06,15,25,22.50
2018,06,06,15,26,24.20
2018,06,06,15,27,25.70
2018,06,06,15,28,25.70
2018,06,06,15,29,25.70
2018,06,06,15,30,25.70
2018,06,06,15,31,30.60
2018,06,06,15,32,20.90
2018,06,06,15,33,20.90
2018,06,06,15,34,19.30
2018,06,06,15,35,22.50
2018,06,06,15,36,20.90
2018,06,06,15,37,29.00
2018,06,06,15,38,20.90
2018,06,06,15,39,22.50
2018,06,06,15,40,22.50
2018,06,06,15,41,20.90
2018,06,06,15,42,25.70
2018,06,06,15,43,22.50
2018,06,06,15,44,17.70
2018,06,06,15,45,17.70
2018,06,06,15,46,24.20
2018,06,06,15,47,27.40
2018,06,06,15,48,20.90
2018,06,06,15,49,24.20
2018,06,06,15,50,19.30
2018,06,06,15,51,20.90
2018,06,06,15,52,25.70
2018,06,06,15,53,22.50
2018,06,06,15,54,22.50
2018,06,06,15,55,22.50
2018,06,06,15,56,25.70
2018,06,06,15,57,22.50
2018,06,06,15,58,20.90
2018,06,06,15,59,20.90
2018,06,06,16,00,20.90
2018,06,06,16,01,30.60
2018,06,06,16,02,25.70
2018,06,06,16,03,30.60
2018,06,06,16,04,20.90
2018,06,06,16,05,32.20
2018,06,06,16,06,30.60
2018,06,06,16,07,22.50
2018,06,06,16,08,19.30
2018,06,06,16,09,24.20
2018,06,06,16,10,25.70
2018,06,06,16,11,20.90
2018,06,06,16,12,24.20
2018,06,06,16,13,27.40
2018,06,06,16,14,20.90
2018,06,06,16,15,16.10
2018,06,06,16,16,17.70
2018,06,06,16,17,24.20
2018,06,06,16,18,17.70
2018,06,06,16,19,33.80
2018,06,06,16,20,24.20
2018,06,06,16,21,25.70
2018,06,06,16,22,19.30
2018,06,06,16,23,25.70
2018,06,06,16,24,22.50
2018,06,06,16,25,16.10
2018,06,06,16,26,22.50
2018,06,06,16,27,22.50
2018,06,06,16,28,17.70
2018,06,06,16,29,17.70
2018,06,06,16,30,24.20
2018,06,06,16,31,22.50
2018,06,06,16,32,20.90
2018,06,06,16,33,19.30
2018,06,06,16,34,22.50
2018,06,06,16,35,22.50
2018,06,06,16,36,17.70
2018,06,06,16,37,24.20
2018,06,06,16,38,20.90
2018,06,06,16,39,25.70
2018,06,06,16,40,14.50
2018,06,06,16,41,24.20
2018,06,06,16,42,22.50
2018,06,06,16,43,19.30
2018,06,06,16,44,20.90
2018,06,06,16,45,29.00
2018,06,06,16,46,25.70
2018,06,06,16,47,20.90
2018,06,06,16,48,24.20
2018,06,06,16,49,25.70
2018,06,06,16,50,20.90
2018,06,06,16,51,17.70
2018,06,06,16,52,24.20
2018,06,06,16,53,22.50
2018,06,06,16,54,24.20
2018,06,06,16,55,19.30
2018,06,06,16,56,32.20
2018,06,06,16,57,24.20
2018,06,06,16,58,24.20
2018,06,06,16,59,22.50
2018,06,06,17,00,17.70
2018,06,06,17,01,17.70
2018,06,06,17,02,20.90
2018,06,06,17,03,19.30
2018,06,06,17,04,20.90
2018,06,06,17,05,19.30
2018,06,06,17,06,20.90
2018,06,06,17,07,19.30
2018,06,06,17,08,17.70
2018,06,06,17,09,19.30
2018,06,06,17,10,19.30
2018,06,06,17,11,24.20
2018,06,06,17,12,20.90
2018,06,06,17,13,24.20
2018,06,06,17,14,16.10
2018,06,06,17,15,14.50
2018,06,06,17,16,20.90
2018,06,06,17,17,24.20
2018,06,06,17,18,29.00
2018,06,06,17,19,25.70
2018,06,06,17,20,24.20
2018,06,06,17,21,29.00
2018,06,06,17,22,25.70
2018,06,06,17,23,22.50
2018,06,06,17,24,22.50
2018,06,06,17,25,25.70
2018,06,06,17,26,27.40
2018,06,06,17,27,25.70
2018,06,06,17,28,20.90
2018,06,06,17,29,19.30
2018,06,06,17,30,24.20
2018,06,06,17,31,24.20
2018,06,06,17,32,24.20
2018,06,06,17,33,22.50
2018,06,06,17,34,24.20
2018,06,06,17,35,24.20
2018,06,06,17,36,24.20
2018,06,06,17,37,16.10
2018,06,06,17,38,27.40
2018,06,06,17,39,24.20
2018,06,06,17,40,24.20
2018,06,06,17,41,19.30
2018,06,06,17,42,19.30
2018,06,06,17,43,16.10
2018,06,06,17,44,17.70
2018,06,06,17,45,19.30
2018,06,06,17,46,22.50
2018,06,06,17,47,22.50
2018,06,06,17,48,24.20
2018,06,06,17,49,20.90
2018,06,06,17,50,19.30
2018,06,06,17,51,24.20
2018,06,06,17,52,25.70
2018,06,06,17,53,20.90
2018,06,06,17,54,17.70
2018,06,06,17,55,20.90
2018,06,06,17,56,19.30
2018,06,06,17,57,24.20
2018,06,06,17,58,22.50
2018,06,06,17,59,19.30
2018,06,06,18,00,22.50
2018,06,06,18,01,24.20
2018,06,06,18,02,24.20
2018,06,06,18,03,17.70
2018,06,06,18,04,16.10
2018,06,06,18,05,19.30
2018,06,06,18,06,27.40
2018,06,06,18,07,19.30
2018,06,06,18,08,24.20
2018,06,06,18,09,20.90
2018,06,06,18,10,19.30
2018,06,06,18,11,24.20
2018,06,06,18,12,25.70
2018,06,06,18,13,25.70
2018,06,06,18,14,25.70
2018,06,06,18,15,24.20
2018,06,06,18,16,24.20
2018,06,06,18,17,20.90
2018,06,06,18,18,17.70
2018,06,06,18,19,17.70
2018,06,06,18,20,20.90
2018,06,06,18,21,17.70
2018,06,06,18,22,22.50
2018,06,06,18,23,22.50
2018,06,06,18,24,22.50
2018,06,06,18,25,12.90
2018,06,06,18,26,14.50
2018,06,06,18,27,20.90
2018,06,06,18,28,17.70
2018,06,06,18,29,19.30
2018,06,06,18,30,25.70
2018,06,06,18,31,20.90
2018,06,06,18,32,14.50
2018,06,06,18,33,20.90
2018,06,06,18,34,27.40
2018,06,06,18,35,20.90
2018,06,06,18,36,29.00
2018,06,06,18,37,25.70
2018,06,06,18,38,22.50